Weather History for Lexington, KY

Change the Weather History Date:

Saturday, October 27, 2012

  Actual Average Record
Temperature  
Mean Temperature 46 °F 54 °F  
Max Temperature 48 °F 64 °F 87 °F (1940)
Min Temperature 43 °F 44 °F 25 °F (1962)
Degree Days  
Heating Degree Days 19 12  
Month to date heating degree days 236 221  
Since 1 July heating degree days 310 275  
Cooling Degree Days 0 0  
Month to date cooling degree days 6 23  
Year to date cooling degree days 1359 1186  
Moisture  
Dew Point 43 °F    
Average Humidity 86    
Maximum Humidity 100    
Minimum Humidity 71    
Precipitation  
Precipitation 0.22 in 0.10 in 1.70 in (1939)
Month to date precipitation 1.00 2.70  
Year to date precipitation 34.03 37.28  
Snow  
Snow 0.00 in 0.00 in T in (2008)
Month to date snowfall 0.0 0.0  
Since 1 July snowfall 0.0 0.0  
Since 1 September snowfall 0.0 0.0  
Snow Depth 0.00 in    
Sea Level Pressure  
Sea Level Pressure 30.07 in    
Wind  
Wind Speed 11 mph (North)    
Max Wind Speed 18 mph    
Max Gust Speed 24 mph    
Visibility 8 miles    
Events Rain    
T = Trace of Precipitation, MM = Missing Value Source: NWS Daily Summary

Daily Weather History Graph

Daily Weather History Graph

Search for Another Location

Airport:

Trip Planner

Search our weather history database for the weather conditions in past years. The results will help you decide how hot, cold, wet, or windy it might be!

Date:

Astronomy

Oct. 27, 2012 Rise Set
Actual Time 7:59 AM EDT 6:44 PM EDT
Civil Twilight 7:32 AM EDT 7:11 PM EDT
Nautical Twilight 7:01 AM EDT 7:42 PM EDT
Astronomical Twilight 6:30 AM EDT 8:12 PM EDT
Moon 5:29 PM EDT (10/27) 5:55 AM EDT (10/27)
Length of Visible Light 11h 39m
Length of Day
10h 44m
Waxing Gibbous, 96% of the Moon is Illuminated
Oct 27
Waxing Gibbous
Oct 29
Full
Nov 6
Last Quarter
Nov 13
New
Nov 20
First Quarter

Hourly Weather History & Observations

Time (EDT) Temp. Windchill Dew Point Humidity Pressure Visibility Wind Dir Wind Speed Gust Speed Precip Events Conditions
12:54 AM 45.0 °F 39.7 °F 45.0 °F 100% 30.08 in 10.0 mi NNW 10.4 mph - N/A   Overcast
1:54 AM 45.0 °F 41.2 °F 44.1 °F 97% 30.06 in 4.0 mi North 6.9 mph - 0.01 in Rain Light Rain
2:54 AM 45.0 °F 40.1 °F 44.1 °F 97% 30.05 in 5.0 mi North 9.2 mph - 0.04 in Rain Rain
3:54 AM 44.1 °F 39.5 °F 44.1 °F 100% 30.05 in 7.0 mi North 8.1 mph - 0.07 in Rain Light Rain
4:54 AM 44.1 °F 39.5 °F 44.1 °F 100% 30.03 in 10.0 mi North 8.1 mph - 0.04 in Rain Light Rain
5:54 AM 44.1 °F 38.6 °F 44.1 °F 100% 30.04 in 10.0 mi NNW 10.4 mph - 0.02 in   Overcast
6:54 AM 45.0 °F 39.7 °F 44.1 °F 97% 30.06 in 2.0 mi North 10.4 mph - 0.02 in Rain Rain
7:19 AM 44.6 °F 38.4 °F 44.6 °F 100% 30.06 in 3.0 mi NNW 12.7 mph - 0.01 in Rain Light Rain
7:49 AM 44.6 °F 38.4 °F 42.8 °F 93% 30.07 in 5.0 mi NNW 12.7 mph - 0.02 in Rain Light Rain
7:54 AM 44.1 °F 37.1 °F 43.0 °F 96% 30.07 in 5.0 mi NNW 15.0 mph 19.6 mph 0.02 in Rain Light Rain
8:54 AM 43.0 °F 36.8 °F 42.1 °F 97% 30.10 in 2.5 mi NNW 11.5 mph - 0.00 in   Overcast
9:54 AM 42.8 °F 36.2 °F 42.8 °F 100% 30.10 in 2.5 mi North 12.7 mph 20.7 mph N/A   Overcast
10:51 AM 44.6 °F 37.2 °F 42.8 °F 93% 30.11 in 10.0 mi North 17.3 mph 24.2 mph N/A   Overcast
10:54 AM 44.1 °F 37.4 °F 42.1 °F 93% 30.12 in 10.0 mi North 13.8 mph 24.2 mph N/A   Overcast
11:54 AM 45.0 °F 39.3 °F 42.1 °F 90% 30.11 in 10.0 mi North 11.5 mph 20.7 mph N/A   Overcast
12:54 PM 46.0 °F 39.9 °F 43.0 °F 89% 30.09 in 10.0 mi North 13.8 mph 20.7 mph N/A   Overcast
1:00 PM 46.4 °F 39.8 °F 42.8 °F 87% 30.08 in 10.0 mi North 16.1 mph - N/A   Overcast
1:54 PM 46.0 °F 39.3 °F 43.0 °F 89% 30.07 in 10.0 mi NNE 16.1 mph 21.9 mph N/A   Overcast
2:54 PM 46.9 °F - 43.0 °F 86% 30.06 in 10.0 mi North 12.7 mph - N/A   Overcast
3:54 PM 48.0 °F - 43.0 °F 83% 30.05 in 10.0 mi NNE 13.8 mph - N/A   Overcast
4:54 PM 48.0 °F - 43.0 °F 83% 30.06 in 10.0 mi North 10.4 mph - N/A   Overcast
5:54 PM 48.0 °F - 43.0 °F 83% 30.07 in 10.0 mi North 11.5 mph - N/A   Overcast
6:54 PM 48.0 °F - 43.0 °F 83% 30.08 in 10.0 mi North 6.9 mph - N/A   Overcast
7:13 PM 48.2 °F - 42.8 °F 82% 30.07 in 10.0 mi North 6.9 mph - N/A   Overcast
7:54 PM 48.0 °F - 43.0 °F 83% 30.08 in 10.0 mi North 5.8 mph - N/A   Overcast
8:11 PM 48.2 °F - 44.6 °F 87% 30.08 in 10.0 mi NNE 4.6 mph - N/A   Overcast
8:54 PM 48.0 °F - 44.1 °F 86% 30.08 in 10.0 mi NNE 6.9 mph - N/A   Overcast
9:47 PM 46.4 °F 40.7 °F 42.8 °F 87% 30.08 in 10.0 mi NNE 12.7 mph - N/A   Overcast
9:54 PM 46.9 °F - 39.9 °F 77% 30.09 in 10.0 mi NNE 16.1 mph 21.9 mph N/A   Overcast
10:54 PM 46.9 °F - 37.9 °F 71% 30.09 in 10.0 mi NNE 12.7 mph - N/A   Overcast
11:54 PM 46.9 °F - 37.0 °F 68% 30.07 in 10.0 mi NNE 11.5 mph 19.6 mph N/A   Overcast